Location: Hackberry
(29.5783°N, 96.8797°W)
Time: 13:34:58
(UTC+00:00)

Transit 2A - Pass Details

Date: 13 November 2024
Orbit: 592 x 956 km, 66.7° (Epoch: 02 December)

Event Time Altitude Azimuth Distance (km) Brightness Sun altitude
Exits shadow 12:04:55 11° 303° (WNW) 2,600 8.1 -10.3°
Maximum altitude 12:05:44 11° 311° (NW) 2,582 8.2 -10.1°
Drops below altitude 10° 12:07:41 10° 329° (NNW) 2,684 8.4 -9.7°
Sets 12:12:29 0° 2° (N) 3,602 9.3 -8.7°
